PTSHO SGIB-SBGR

Flight info

Callsign PTSHO
Flight time 2h 19m
Altitude 21000
Route KUDUX DCT UGPIR DCT EDRAT DCT BUXUK
Aircraft E110/L-SDFGHRY/S

Departure

Time 2026-04-30 17:41
Airport Itaipú Airport (SGIB)

Arrival

Time 2026-04-30 20:00
Airport São Paulo/Guarulhos–Governor André Franco Montoro International Airport (SBGR)
Time Latitude Longitude Altitude Speed Heading
2026-04-30 17:39 -25.34333 -54.50517 6665 ft 170 kts 75°
2026-04-30 17:41 -25.32342 -54.39984 9332 ft 180 kts 74°
2026-04-30 17:42 -25.31825 -54.37258 9938 ft 182 kts 74°
2026-04-30 17:42 -25.31039 -54.33128 10670 ft 183 kts 75°
2026-04-30 17:43 -25.30517 -54.30371 11148 ft 183 kts 75°
2026-04-30 17:44 -25.29732 -54.26244 11803 ft 184 kts 75°
2026-04-30 17:44 -25.28937 -54.22086 12387 ft 184 kts 76°
2026-04-30 17:46 -25.27616 -54.15162 13227 ft 185 kts 76°
2026-04-30 17:47 -25.26549 -54.09595 13816 ft 186 kts 76°
2026-04-30 17:48 -25.25473 -54.03974 14254 ft 188 kts 76°
2026-04-30 17:48 -25.24657 -53.99735 14579 ft 189 kts 76°
2026-04-30 17:49 -25.23554 -53.94013 15027 ft 191 kts 76°
2026-04-30 17:50 -25.22436 -53.88237 15382 ft 193 kts 73°
2026-04-30 17:51 -25.21097 -53.84070 15604 ft 193 kts 69°
2026-04-30 17:52 -25.19746 -53.79864 15804 ft 194 kts 69°
2026-04-30 17:53 -25.17479 -53.72835 16110 ft 195 kts 69°
2026-04-30 17:54 -25.15806 -53.67657 16309 ft 196 kts 69°
2026-04-30 17:55 -25.13817 -53.61505 16635 ft 197 kts 69°
2026-04-30 17:56 -25.12118 -53.56257 16951 ft 198 kts 69°
2026-04-30 17:57 -25.10716 -53.51938 17212 ft 199 kts 69°
2026-04-30 17:58 -25.09310 -53.47610 17402 ft 200 kts 69°
2026-04-30 17:59 -25.07428 -53.41825 17634 ft 201 kts 69°
2026-04-30 18:00 -25.05529 -53.35992 17843 ft 202 kts 69°
2026-04-30 18:00 -25.04109 -53.31632 17973 ft 202 kts 69°
2026-04-30 18:01 -25.03158 -53.28717 18043 ft 203 kts 69°
2026-04-30 18:02 -25.01725 -53.24329 18146 ft 203 kts 69°
2026-04-30 18:02 -25.00281 -53.19916 18228 ft 204 kts 69°
2026-04-30 18:03 -24.98839 -53.15516 18307 ft 204 kts 69°
2026-04-30 18:04 -24.97388 -53.11089 18364 ft 204 kts 69°
2026-04-30 18:05 -24.95454 -53.05201 18414 ft 206 kts 69°
2026-04-30 18:06 -24.93518 -52.99308 18795 ft 201 kts 68°
2026-04-30 18:07 -24.91624 -52.93557 19240 ft 199 kts 68°
2026-04-30 18:08 -24.90181 -52.89154 19283 ft 208 kts 68°
2026-04-30 18:09 -24.88187 -52.83121 19286 ft 211 kts 68°
2026-04-30 18:10 -24.86172 -52.77029 19282 ft 211 kts 68°
2026-04-30 18:11 -24.84163 -52.70962 19278 ft 211 kts 68°
2026-04-30 18:11 -24.82657 -52.66419 19278 ft 211 kts 68°
2026-04-30 18:12 -24.81145 -52.61863 19275 ft 211 kts 68°
2026-04-30 18:13 -24.80136 -52.58829 19272 ft 211 kts 68°
2026-04-30 18:13 -24.78788 -52.54773 19276 ft 211 kts 68°
2026-04-30 18:14 -24.77609 -52.51230 19276 ft 211 kts 68°
2026-04-30 18:15 -24.76143 -52.46838 19267 ft 196 kts 68°
2026-04-30 18:15 -24.74754 -52.42676 19266 ft 191 kts 68°
2026-04-30 18:16 -24.73842 -52.39946 19269 ft 190 kts 68°
2026-04-30 18:16 -24.72935 -52.37229 19265 ft 189 kts 68°
2026-04-30 18:17 -24.72478 -52.35862 19265 ft 188 kts 68°
2026-04-30 18:17 -24.72028 -52.34516 19268 ft 188 kts 68°
2026-04-30 18:17 -24.71126 -52.31823 19270 ft 189 kts 68°
2026-04-30 18:18 -24.70670 -52.30455 19265 ft 189 kts 68°
2026-04-30 18:18 -24.70217 -52.29101 19270 ft 189 kts 68°
2026-04-30 18:18 -24.69763 -52.27751 19273 ft 189 kts 68°
2026-04-30 18:18 -24.69306 -52.26388 19272 ft 189 kts 68°
2026-04-30 18:19 -24.68853 -52.25033 19273 ft 189 kts 68°
2026-04-30 18:19 -24.68398 -52.23678 19271 ft 188 kts 68°
2026-04-30 18:19 -24.67945 -52.22325 19276 ft 189 kts 68°
2026-04-30 18:19 -24.67488 -52.20969 19276 ft 191 kts 68°
2026-04-30 18:20 -24.67030 -52.19601 19274 ft 191 kts 68°
2026-04-30 18:20 -24.66572 -52.18240 19275 ft 190 kts 68°
2026-04-30 18:20 -24.66113 -52.16869 19272 ft 190 kts 68°
2026-04-30 18:20 -24.65653 -52.15496 19275 ft 190 kts 68°
2026-04-30 18:21 -24.65199 -52.14145 19273 ft 191 kts 68°
2026-04-30 18:21 -24.64736 -52.12769 19272 ft 190 kts 68°
2026-04-30 18:21 -24.64276 -52.11404 19274 ft 190 kts 68°
2026-04-30 18:21 -24.63819 -52.10044 19275 ft 190 kts 68°
2026-04-30 18:22 -24.63363 -52.08691 19282 ft 189 kts 68°
2026-04-30 18:22 -24.62441 -52.05952 19278 ft 189 kts 68°
2026-04-30 18:22 -24.61986 -52.04603 19284 ft 190 kts 68°
2026-04-30 18:23 -24.61529 -52.03247 19283 ft 190 kts 68°
2026-04-30 18:23 -24.61067 -52.01874 19279 ft 190 kts 68°
2026-04-30 18:23 -24.60608 -52.00514 19279 ft 190 kts 68°
2026-04-30 18:23 -24.60146 -51.99149 19285 ft 191 kts 68°
2026-04-30 18:24 -24.59231 -51.96431 19281 ft 190 kts 68°
2026-04-30 18:24 -24.58770 -51.95072 19278 ft 191 kts 68°
2026-04-30 18:24 -24.58305 -51.93691 19280 ft 190 kts 68°
2026-04-30 18:25 -24.57846 -51.92334 19280 ft 190 kts 68°
2026-04-30 18:25 -24.56923 -51.89598 19278 ft 190 kts 68°
2026-04-30 18:25 -24.56463 -51.88247 19282 ft 190 kts 68°
2026-04-30 18:26 -24.55541 -51.85526 19280 ft 190 kts 68°
2026-04-30 18:26 -24.55082 -51.84162 19283 ft 191 kts 68°
2026-04-30 18:26 -24.54617 -51.82791 19288 ft 191 kts 68°
2026-04-30 18:27 -24.53692 -51.80062 19283 ft 190 kts 68°
2026-04-30 18:27 -24.53227 -51.78691 19281 ft 191 kts 68°
2026-04-30 18:28 -24.52301 -51.75960 19283 ft 190 kts 68°
2026-04-30 18:28 -24.51839 -51.74609 19285 ft 191 kts 68°
2026-04-30 18:28 -24.50913 -51.71873 19281 ft 191 kts 68°
2026-04-30 18:29 -24.50448 -51.70506 19278 ft 191 kts 68°
2026-04-30 18:29 -24.49061 -51.66423 19276 ft 190 kts 68°
2026-04-30 18:30 -24.48288 -51.64156 19274 ft 189 kts 68°
2026-04-30 18:30 -24.47213 -51.61000 19283 ft 190 kts 67°
2026-04-30 18:31 -24.46752 -51.59644 19282 ft 191 kts 68°
2026-04-30 18:31 -24.45974 -51.57361 19286 ft 192 kts 68°
2026-04-30 18:32 -24.45042 -51.54628 19281 ft 191 kts 68°
2026-04-30 18:32 -24.44574 -51.53257 19280 ft 190 kts 68°
2026-04-30 18:32 -24.43654 -51.50561 19282 ft 189 kts 68°
2026-04-30 18:33 -24.43189 -51.49199 19279 ft 189 kts 68°
2026-04-30 18:33 -24.42266 -51.46502 19282 ft 190 kts 68°
2026-04-30 18:33 -24.41799 -51.45128 19280 ft 190 kts 68°
2026-04-30 18:34 -24.41333 -51.43770 19280 ft 190 kts 68°
2026-04-30 18:34 -24.40401 -51.41053 19280 ft 191 kts 68°
2026-04-30 18:34 -24.39939 -51.39696 19281 ft 191 kts 68°
2026-04-30 18:35 -24.39471 -51.38330 19281 ft 191 kts 68°
2026-04-30 18:35 -24.39007 -51.36975 19282 ft 190 kts 68°
2026-04-30 18:35 -24.38542 -51.35624 19281 ft 191 kts 68°
2026-04-30 18:36 -24.37607 -51.32892 19280 ft 190 kts 68°
2026-04-30 18:36 -24.37140 -51.31530 19279 ft 190 kts 68°
2026-04-30 18:36 -24.36213 -51.28832 19279 ft 191 kts 68°
2026-04-30 18:37 -24.35741 -51.27457 19277 ft 191 kts 68°
2026-04-30 18:37 -24.35277 -51.26103 19279 ft 191 kts 68°
2026-04-30 18:37 -24.34806 -51.24735 19279 ft 191 kts 68°
2026-04-30 18:37 -24.34342 -51.23386 19282 ft 191 kts 68°
2026-04-30 18:38 -24.33872 -51.22022 19279 ft 191 kts 68°
2026-04-30 18:38 -24.33408 -51.20669 19275 ft 191 kts 68°
2026-04-30 18:38 -24.32942 -51.19313 19283 ft 190 kts 68°
2026-04-30 18:38 -24.32476 -51.17957 19285 ft 190 kts 68°
2026-04-30 18:39 -24.32004 -51.16588 19286 ft 191 kts 68°
2026-04-30 18:39 -24.31538 -51.15234 19284 ft 191 kts 68°
2026-04-30 18:39 -24.31066 -51.13867 19282 ft 191 kts 68°
2026-04-30 18:39 -24.30596 -51.12507 19280 ft 191 kts 68°
2026-04-30 18:40 -24.30128 -51.11147 19281 ft 190 kts 67°
2026-04-30 18:40 -24.29661 -51.09792 19280 ft 190 kts 68°
2026-04-30 18:40 -24.29194 -51.08437 19281 ft 191 kts 68°
2026-04-30 18:40 -24.28719 -51.07060 19278 ft 191 kts 68°
2026-04-30 18:41 -24.28281 -51.05690 19286 ft 192 kts 77°
2026-04-30 18:41 -24.28072 -51.04248 19286 ft 194 kts 80°
2026-04-30 18:41 -24.27852 -51.02787 19286 ft 196 kts 79°
2026-04-30 18:41 -24.27622 -51.01294 19291 ft 197 kts 79°
2026-04-30 18:42 -24.27397 -50.99813 19288 ft 198 kts 79°
2026-04-30 18:42 -24.26943 -50.96832 19291 ft 199 kts 79°
2026-04-30 18:42 -24.26715 -50.95322 19291 ft 199 kts 79°
2026-04-30 18:45 -24.24415 -50.80309 19293 ft 200 kts 79°
2026-04-30 18:45 -24.24186 -50.78809 19293 ft 200 kts 79°
2026-04-30 18:45 -24.23956 -50.77311 19293 ft 200 kts 79°
2026-04-30 18:46 -24.23722 -50.75797 19295 ft 200 kts 79°
2026-04-30 18:46 -24.23492 -50.74298 19293 ft 201 kts 79°
2026-04-30 18:46 -24.23261 -50.72794 19292 ft 201 kts 79°
2026-04-30 18:46 -24.23026 -50.71272 19291 ft 201 kts 79°
2026-04-30 18:47 -24.22794 -50.69768 19292 ft 200 kts 79°
2026-04-30 18:47 -24.22562 -50.68265 19289 ft 200 kts 79°
2026-04-30 18:47 -24.22331 -50.66770 19287 ft 200 kts 79°
2026-04-30 18:47 -24.22099 -50.65268 19286 ft 200 kts 79°
2026-04-30 18:48 -24.21867 -50.63769 19293 ft 201 kts 79°
2026-04-30 18:48 -24.21633 -50.62250 19291 ft 200 kts 79°
2026-04-30 18:48 -24.21401 -50.60755 19288 ft 200 kts 79°
2026-04-30 18:48 -24.21168 -50.59255 19289 ft 200 kts 79°
2026-04-30 18:49 -24.20937 -50.57759 19287 ft 200 kts 79°
2026-04-30 18:49 -24.20704 -50.56255 19290 ft 200 kts 79°
2026-04-30 18:49 -24.20470 -50.54752 19288 ft 201 kts 79°
2026-04-30 18:49 -24.20234 -50.53237 19286 ft 200 kts 79°
2026-04-30 18:50 -24.20001 -50.51736 19286 ft 200 kts 79°
2026-04-30 18:50 -24.19767 -50.50231 19287 ft 200 kts 79°
2026-04-30 18:50 -24.19532 -50.48723 19284 ft 200 kts 79°
2026-04-30 18:50 -24.19298 -50.47220 19283 ft 200 kts 79°
2026-04-30 18:51 -24.19067 -50.45734 19284 ft 200 kts 79°
2026-04-30 18:51 -24.18830 -50.44211 19286 ft 200 kts 79°
2026-04-30 18:51 -24.18597 -50.42717 19282 ft 201 kts 79°
2026-04-30 18:51 -24.18360 -50.41203 19282 ft 201 kts 79°
2026-04-30 18:52 -24.18123 -50.39690 19281 ft 201 kts 79°
2026-04-30 18:52 -24.17890 -50.38190 19280 ft 201 kts 79°
2026-04-30 18:52 -24.17660 -50.36661 19282 ft 201 kts 79°
2026-04-30 18:52 -24.17433 -50.35149 19285 ft 201 kts 79°
2026-04-30 18:53 -24.17202 -50.33642 19282 ft 201 kts 79°
2026-04-30 18:53 -24.16971 -50.32132 19285 ft 201 kts 79°
2026-04-30 18:53 -24.16741 -50.30633 19284 ft 202 kts 79°
2026-04-30 18:53 -24.16507 -50.29109 19281 ft 202 kts 79°
2026-04-30 18:54 -24.16274 -50.27593 19281 ft 202 kts 79°
2026-04-30 18:54 -24.16042 -50.26078 19286 ft 201 kts 79°
2026-04-30 18:54 -24.15809 -50.24567 19285 ft 202 kts 79°
2026-04-30 18:54 -24.15576 -50.23045 19284 ft 202 kts 79°
2026-04-30 18:55 -24.15343 -50.21542 19283 ft 201 kts 79°
2026-04-30 18:55 -24.14875 -50.18506 19281 ft 202 kts 79°
2026-04-30 18:55 -24.14641 -50.16992 19282 ft 202 kts 79°
2026-04-30 18:56 -24.14175 -50.13969 19284 ft 202 kts 79°
2026-04-30 18:56 -24.13941 -50.12458 19281 ft 201 kts 79°
2026-04-30 18:56 -24.13705 -50.10938 19282 ft 201 kts 79°
2026-04-30 18:57 -24.13239 -50.07919 19285 ft 201 kts 79°
2026-04-30 18:57 -24.13004 -50.06408 19286 ft 201 kts 79°
2026-04-30 18:57 -24.12771 -50.04904 19285 ft 201 kts 79°
2026-04-30 18:58 -24.12303 -50.01888 19283 ft 200 kts 79°
2026-04-30 18:58 -24.12071 -50.00396 19285 ft 201 kts 79°
2026-04-30 18:58 -24.11835 -49.98883 19284 ft 201 kts 79°
2026-04-30 18:59 -24.11366 -49.95866 19281 ft 201 kts 79°
2026-04-30 19:00 -24.10659 -49.91332 19283 ft 202 kts 79°
2026-04-30 19:00 -24.10422 -49.89818 19282 ft 203 kts 79°
2026-04-30 19:00 -24.09945 -49.86773 19281 ft 202 kts 79°
2026-04-30 19:01 -24.09472 -49.83742 19279 ft 202 kts 79°
2026-04-30 19:01 -24.09235 -49.82227 19279 ft 202 kts 79°
2026-04-30 19:02 -24.08761 -49.79207 19285 ft 202 kts 79°
2026-04-30 19:02 -24.08281 -49.76162 19283 ft 202 kts 79°
2026-04-30 19:03 -24.07804 -49.73129 19283 ft 202 kts 79°
2026-04-30 19:03 -24.07329 -49.70102 19284 ft 202 kts 79°
2026-04-30 19:04 -24.06853 -49.67080 19281 ft 202 kts 79°
2026-04-30 19:04 -24.06376 -49.64066 19280 ft 201 kts 79°
2026-04-30 19:05 -24.05897 -49.61038 19286 ft 201 kts 79°
2026-04-30 19:05 -24.05421 -49.58025 19283 ft 202 kts 79°
2026-04-30 19:06 -24.04940 -49.54990 19285 ft 202 kts 79°
2026-04-30 19:06 -24.04700 -49.53485 19284 ft 202 kts 79°
2026-04-30 19:06 -24.04219 -49.50450 19286 ft 202 kts 79°
2026-04-30 19:07 -24.03739 -49.47433 19282 ft 202 kts 79°
2026-04-30 19:07 -24.03497 -49.45920 19282 ft 202 kts 79°
2026-04-30 19:08 -24.03016 -49.42894 19284 ft 203 kts 79°
2026-04-30 19:08 -24.02533 -49.39866 19279 ft 202 kts 79°
2026-04-30 19:08 -24.02290 -49.38342 19281 ft 202 kts 79°
2026-04-30 19:09 -24.01805 -49.35313 19285 ft 203 kts 79°
2026-04-30 19:09 -24.01561 -49.33786 19279 ft 203 kts 79°
2026-04-30 19:09 -24.01317 -49.32264 19282 ft 203 kts 79°
2026-04-30 19:10 -24.00832 -49.29240 19287 ft 202 kts 79°
2026-04-30 19:10 -24.00342 -49.26186 19280 ft 202 kts 79°
2026-04-30 19:11 -24.00098 -49.24669 19285 ft 203 kts 79°
2026-04-30 19:11 -23.99613 -49.21651 19284 ft 203 kts 79°
2026-04-30 19:11 -23.99369 -49.20134 19280 ft 202 kts 79°
2026-04-30 19:12 -23.99124 -49.18615 19283 ft 203 kts 79°
2026-04-30 19:12 -23.98879 -49.17089 19282 ft 204 kts 79°
2026-04-30 19:12 -23.98633 -49.15568 19280 ft 203 kts 79°
2026-04-30 19:13 -23.98225 -49.13041 19283 ft 203 kts 79°
2026-04-30 19:13 -23.97734 -49.10003 19280 ft 203 kts 79°
2026-04-30 19:13 -23.97489 -49.08486 19278 ft 202 kts 79°
2026-04-30 19:14 -23.97243 -49.06971 19283 ft 202 kts 79°
2026-04-30 19:14 -23.96998 -49.05456 19282 ft 202 kts 79°
2026-04-30 19:14 -23.96753 -49.03943 19283 ft 202 kts 79°
2026-04-30 19:14 -23.96507 -49.02431 19282 ft 202 kts 79°
2026-04-30 19:15 -23.96263 -49.00922 19281 ft 202 kts 79°
2026-04-30 19:15 -23.95773 -48.97906 19282 ft 202 kts 79°
2026-04-30 19:15 -23.95527 -48.96393 19280 ft 202 kts 79°
2026-04-30 19:16 -23.95284 -48.94903 19278 ft 202 kts 79°
2026-04-30 19:16 -23.95038 -48.93393 19280 ft 201 kts 79°
2026-04-30 19:16 -23.94547 -48.90374 19281 ft 201 kts 79°
2026-04-30 19:17 -23.94301 -48.88868 19283 ft 201 kts 79°
2026-04-30 19:17 -23.93808 -48.85848 19281 ft 202 kts 79°
2026-04-30 19:17 -23.93561 -48.84338 19281 ft 202 kts 78°
2026-04-30 19:18 -23.93151 -48.81831 19283 ft 201 kts 79°
2026-04-30 19:18 -23.92821 -48.79815 19281 ft 202 kts 79°
2026-04-30 19:18 -23.92573 -48.78302 19283 ft 201 kts 79°
2026-04-30 19:19 -23.92326 -48.76793 19282 ft 202 kts 79°
2026-04-30 19:19 -23.92081 -48.75301 19281 ft 201 kts 79°
2026-04-30 19:19 -23.91586 -48.72288 19278 ft 202 kts 79°
2026-04-30 19:20 -23.91337 -48.70775 19279 ft 202 kts 79°
2026-04-30 19:20 -23.91088 -48.69266 19282 ft 202 kts 79°
2026-04-30 19:20 -23.90593 -48.66249 19283 ft 202 kts 79°
2026-04-30 19:21 -23.90342 -48.64735 19285 ft 202 kts 79°
2026-04-30 19:21 -23.89843 -48.61704 19282 ft 202 kts 79°
2026-04-30 19:22 -23.89343 -48.58675 19286 ft 203 kts 79°
2026-04-30 19:22 -23.88591 -48.54131 19284 ft 202 kts 79°
2026-04-30 19:23 -23.87843 -48.49621 19284 ft 202 kts 79°
2026-04-30 19:24 -23.87341 -48.46593 19289 ft 203 kts 79°
2026-04-30 19:24 -23.87089 -48.45076 19286 ft 203 kts 79°
2026-04-30 19:24 -23.86585 -48.42045 19288 ft 202 kts 78°
2026-04-30 19:25 -23.85829 -48.37512 19289 ft 202 kts 78°
2026-04-30 19:26 -23.85326 -48.34488 19291 ft 202 kts 79°
2026-04-30 19:26 -23.84821 -48.31463 19292 ft 203 kts 78°
2026-04-30 19:26 -23.84570 -48.29970 19290 ft 203 kts 78°
2026-04-30 19:27 -23.84062 -48.26929 19296 ft 203 kts 78°
2026-04-30 19:27 -23.83554 -48.23893 19293 ft 203 kts 78°
2026-04-30 19:28 -23.83299 -48.22377 19294 ft 203 kts 78°
2026-04-30 19:28 -23.82790 -48.19344 19292 ft 203 kts 78°
2026-04-30 19:29 -23.82282 -48.16319 19299 ft 202 kts 78°
2026-04-30 19:29 -23.82027 -48.14804 19295 ft 203 kts 78°
2026-04-30 19:30 -23.81262 -48.10263 19302 ft 204 kts 78°
2026-04-30 19:30 -23.80748 -48.07214 19300 ft 203 kts 78°
2026-04-30 19:31 -23.80238 -48.04192 19300 ft 203 kts 78°
2026-04-30 19:31 -23.79982 -48.02673 19298 ft 203 kts 78°
2026-04-30 19:31 -23.79466 -47.99637 19301 ft 204 kts 78°
2026-04-30 19:32 -23.79209 -47.98119 19306 ft 203 kts 78°
2026-04-30 19:32 -23.78953 -47.96601 19304 ft 203 kts 78°
2026-04-30 19:32 -23.78695 -47.95084 19301 ft 203 kts 78°
2026-04-30 19:32 -23.78439 -47.93571 19301 ft 203 kts 78°
2026-04-30 19:33 -23.78180 -47.92049 19301 ft 203 kts 78°
2026-04-30 19:33 -23.77922 -47.90529 19301 ft 203 kts 78°
2026-04-30 19:33 -23.77662 -47.89002 19299 ft 203 kts 78°
2026-04-30 19:33 -23.77407 -47.87500 19303 ft 203 kts 78°
2026-04-30 19:34 -23.77148 -47.85978 19305 ft 203 kts 78°
2026-04-30 19:34 -23.76893 -47.84483 19303 ft 203 kts 78°
2026-04-30 19:34 -23.76164 -47.81522 19299 ft 199 kts 55°
2026-04-30 19:35 -23.75274 -47.80391 19302 ft 195 kts 40°
2026-04-30 19:35 -23.74298 -47.79377 19305 ft 196 kts 41°
2026-04-30 19:35 -23.73322 -47.78340 19303 ft 196 kts 41°
2026-04-30 19:35 -23.72349 -47.77314 19300 ft 196 kts 41°
2026-04-30 19:36 -23.71368 -47.76283 19301 ft 196 kts 40°
2026-04-30 19:36 -23.70382 -47.75243 19304 ft 196 kts 40°
2026-04-30 19:36 -23.68423 -47.73180 19299 ft 196 kts 41°
2026-04-30 19:37 -23.67447 -47.72156 19294 ft 196 kts 40°
2026-04-30 19:37 -23.66456 -47.71112 19294 ft 196 kts 40°
2026-04-30 19:37 -23.65480 -47.70086 19296 ft 196 kts 40°
2026-04-30 19:37 -23.64498 -47.69052 19292 ft 196 kts 41°
2026-04-30 19:38 -23.63518 -47.68021 19288 ft 197 kts 41°
2026-04-30 19:38 -23.62522 -47.66973 19290 ft 196 kts 41°
2026-04-30 19:38 -23.61544 -47.65944 19291 ft 196 kts 41°
2026-04-30 19:38 -23.60566 -47.64917 19286 ft 196 kts 41°
2026-04-30 19:39 -23.59574 -47.63875 19284 ft 196 kts 41°
2026-04-30 19:39 -23.58597 -47.62848 19285 ft 196 kts 41°
2026-04-30 19:39 -23.57614 -47.61816 19279 ft 197 kts 41°
2026-04-30 19:39 -23.56607 -47.60754 18907 ft 203 kts 42°
2026-04-30 19:40 -23.55667 -47.59592 18547 ft 205 kts 61°
2026-04-30 19:40 -23.55340 -47.58079 18137 ft 208 kts 84°
2026-04-30 19:40 -23.55236 -47.56504 17653 ft 211 kts 86°
2026-04-30 19:40 -23.55097 -47.54916 17195 ft 212 kts 83°
2026-04-30 19:41 -23.54869 -47.53307 16723 ft 213 kts 81°
2026-04-30 19:41 -23.54628 -47.51728 16264 ft 213 kts 82°
2026-04-30 19:41 -23.54396 -47.50125 15820 ft 213 kts 82°
2026-04-30 19:41 -23.54169 -47.48543 15368 ft 213 kts 82°
2026-04-30 19:42 -23.53935 -47.46930 14930 ft 213 kts 82°
2026-04-30 19:42 -23.53707 -47.45343 14508 ft 212 kts 83°
2026-04-30 19:42 -23.53494 -47.43859 14109 ft 212 kts 83°
2026-04-30 19:42 -23.53262 -47.42257 13657 ft 212 kts 83°
2026-04-30 19:43 -23.53032 -47.40668 13177 ft 212 kts 83°
2026-04-30 19:43 -23.52804 -47.39094 12710 ft 212 kts 83°
2026-04-30 19:43 -23.52581 -47.37559 12261 ft 212 kts 82°
2026-04-30 19:44 -23.52125 -47.34397 11348 ft 212 kts 82°
2026-04-30 19:44 -23.51892 -47.32798 10909 ft 212 kts 82°
2026-04-30 19:44 -23.51662 -47.31215 10475 ft 212 kts 82°
2026-04-30 19:44 -23.51430 -47.29629 10037 ft 212 kts 82°
2026-04-30 19:45 -23.51201 -47.28051 9576 ft 212 kts 81°
2026-04-30 19:45 -23.50969 -47.26455 9091 ft 211 kts 81°
2026-04-30 19:45 -23.50740 -47.24888 8625 ft 210 kts 81°
2026-04-30 19:45 -23.50514 -47.23325 8173 ft 210 kts 81°
2026-04-30 19:46 -23.50283 -47.21743 7712 ft 208 kts 82°
2026-04-30 19:46 -23.50056 -47.20194 7257 ft 207 kts 81°
2026-04-30 19:46 -23.49830 -47.18653 6815 ft 205 kts 81°
2026-04-30 19:46 -23.49608 -47.17130 6373 ft 204 kts 81°
2026-04-30 19:47 -23.49386 -47.15616 5934 ft 201 kts 82°
2026-04-30 19:47 -23.49241 -47.14637 5914 ft 195 kts 82°
2026-04-30 19:47 -23.48952 -47.12682 5910 ft 198 kts 82°
2026-04-30 19:47 -23.48739 -47.11198 5913 ft 198 kts 82°
2026-04-30 19:48 -23.48520 -47.09703 5912 ft 200 kts 82°
2026-04-30 19:48 -23.48302 -47.08220 5912 ft 200 kts 82°
2026-04-30 19:48 -23.48080 -47.06718 5911 ft 200 kts 82°
2026-04-30 19:48 -23.47860 -47.05218 5914 ft 200 kts 82°
2026-04-30 19:49 -23.47642 -47.03734 5915 ft 199 kts 82°
2026-04-30 19:49 -23.47199 -47.00735 5915 ft 199 kts 82°
2026-04-30 19:49 -23.46980 -46.99245 5920 ft 201 kts 82°
2026-04-30 19:50 -23.46755 -46.97730 5927 ft 202 kts 82°
2026-04-30 19:50 -23.46532 -46.96220 5930 ft 202 kts 82°
2026-04-30 19:50 -23.46310 -46.94712 5929 ft 202 kts 82°
2026-04-30 19:50 -23.46087 -46.93217 5929 ft 200 kts 82°
2026-04-30 19:51 -23.45863 -46.91703 5936 ft 200 kts 82°
2026-04-30 19:51 -23.45645 -46.90229 5937 ft 200 kts 82°
2026-04-30 19:51 -23.45424 -46.88734 5943 ft 201 kts 82°
2026-04-30 19:51 -23.45200 -46.87226 5943 ft 201 kts 82°
2026-04-30 19:52 -23.44978 -46.85734 5947 ft 201 kts 82°
2026-04-30 19:52 -23.44754 -46.84229 5946 ft 201 kts 82°
2026-04-30 19:52 -23.44532 -46.82735 5950 ft 200 kts 82°
2026-04-30 19:52 -23.44308 -46.81221 5955 ft 201 kts 82°
2026-04-30 19:53 -23.44081 -46.79693 5956 ft 208 kts 82°
2026-04-30 19:53 -23.43848 -46.78128 5961 ft 213 kts 81°
2026-04-30 19:53 -23.43609 -46.76517 5961 ft 216 kts 82°
2026-04-30 19:53 -23.43371 -46.74908 5965 ft 217 kts 81°
2026-04-30 19:54 -23.43130 -46.73301 5901 ft 213 kts 82°
2026-04-30 19:54 -23.42971 -46.72234 5823 ft 212 kts 83°
2026-04-30 19:54 -23.43117 -46.70157 5681 ft 206 kts 111°
2026-04-30 19:54 -23.43502 -46.69247 5612 ft 196 kts 124°
2026-04-30 19:55 -23.44255 -46.68053 5494 ft 190 kts 127°
2026-04-30 19:55 -23.44996 -46.66854 5368 ft 187 kts 126°
2026-04-30 19:55 -23.45721 -46.65693 5214 ft 188 kts 127°
2026-04-30 19:55 -23.46458 -46.64524 5024 ft 189 kts 127°
2026-04-30 19:56 -23.47002 -46.63301 4816 ft 168 kts 106°
2026-04-30 19:56 -23.47059 -46.62093 4603 ft 153 kts 82°
2026-04-30 19:56 -23.46805 -46.60994 4471 ft 147 kts 79°
2026-04-30 19:56 -23.46542 -46.59907 4473 ft 146 kts 79°
2026-04-30 19:57 -23.46264 -46.58859 4414 ft 146 kts 77°
2026-04-30 19:57 -23.45971 -46.57775 4233 ft 148 kts 79°
2026-04-30 19:57 -23.45684 -46.56700 4037 ft 147 kts 78°
2026-04-30 19:57 -23.45395 -46.55648 3843 ft 145 kts 79°
2026-04-30 19:58 -23.45120 -46.54613 3677 ft 137 kts 83°
2026-04-30 19:58 -23.44855 -46.53617 3499 ft 136 kts 78°
2026-04-30 19:58 -23.44603 -46.52720 3347 ft 110 kts 81°
2026-04-30 19:58 -23.44407 -46.51951 3193 ft 103 kts 82°
2026-04-30 19:59 -23.44201 -46.51210 3066 ft 102 kts 87°
2026-04-30 19:59 -23.44020 -46.50444 2922 ft 106 kts 79°
2026-04-30 19:59 -23.43591 -46.48892 2622 ft 107 kts 81°
2026-04-30 20:00 -23.43366 -46.48132 2489 ft 104 kts 79°
2026-04-30 20:00 -23.43208 -46.47489 2455 ft 60 kts 76°
2026-04-30 20:00 -23.43126 -46.47241 2458 ft 26 kts 69°
2026-04-30 20:00 -23.43089 -46.47096 2458 ft 20 kts 75°
2026-04-30 20:01 -23.43072 -46.46722 2463 ft 22 kts 161°
2026-04-30 20:01 -23.43211 -46.46770 2467 ft 28 kts 218°
2026-04-30 20:01 -23.43365 -46.46934 2461 ft 16 kts 231°
2026-04-30 20:02 -23.43538 -46.46980 2461 ft 17 kts 164°
2026-04-30 20:02 -23.43604 -46.47018 2463 ft 15 kts 255°
2026-04-30 20:03 -23.43675 -46.47281 2464 ft 21 kts 252°
2026-04-30 20:03 -23.43719 -46.47444 2464 ft 24 kts 252°
2026-04-30 20:03 -23.43766 -46.47620 2465 ft 25 kts 252°
2026-04-30 20:03 -23.43813 -46.47793 2462 ft 24 kts 250°
2026-04-30 20:04 -23.43858 -46.47960 2462 ft 21 kts 256°
2026-04-30 20:04 -23.43901 -46.48039 2460 ft 8 kts 200°
2026-04-30 20:04 -23.43956 -46.48054 2460 ft 7 kts 201°
2026-04-30 20:05 -23.43998 -46.48113 2459 ft 5 kts 207°
2026-04-30 20:05 -23.44006 -46.48126 2459 ft 2 kts 239°
2026-04-30 20:05 -23.44005 -46.48151 2459 ft 0 kts 345°